Monett, MO

3:36 AM CST on December 09, 2016 (GMT -0600)
Monett

Weather History for KHFJ - January, 2013

Change the Weather History Date:

Wednesday, January 2, 2013

  Actual Average (KJLN) Record (KJLN)
Temperature  
Mean Temperature 24 °F -  
Max Temperature 32 °F 42 °F 75 °F (1997)
Min Temperature 15 °F 24 °F -3 °F (2001)
Degree Days  
Heating Degree Days 42    
Moisture  
Dew Point 19 °F    
Average Humidity 81    
Maximum Humidity 100    
Minimum Humidity 60    
Precipitation  
Precipitation 0.00 in - - ()
Sea Level Pressure  
Sea Level Pressure 30.21 in    
Wind  
Wind Speed 3 mph (SSW)    
Max Wind Speed 9 mph    
Max Gust Speed -    
Visibility 8 miles    
Events Fog    
Averages and records for this station are not official NWS values.
T = Trace of Precipitation, MM = Missing Value Source: NWS Daily Summary

Daily Weather History Graph

Daily Weather History Graph

Search for Another Location

Airport or City:

Trip Planner

Search our weather history database for the weather conditions in past years. The results will help you decide how hot, cold, wet, or windy it might be!

Date:

Astronomy

Jan. 02, 2013 Rise Set
Actual Time 7:29 AM CST 5:11 PM CST
Civil Twilight 7:00 AM CST 5:40 PM CST
Nautical Twilight 6:28 AM CST 6:12 PM CST
Astronomical Twilight 5:56 AM CST 6:44 PM CST
Moon 10:35 PM CST (1/2) 10:19 AM CST (1/2)
Length of Visible Light 10h 39m
Length of Day
9h 42m
Waning Gibbous, 75% of the Moon is Illuminated
Jan 2
Waning Gibbous
Jan 4
Last Quarter
Jan 11
New
Jan 18
First Quarter
Jan 26
Full

Hourly Weather History & Observations

Time (CST) Temp. Windchill Dew Point Humidity Pressure Visibility Wind Dir Wind Speed Gust Speed Precip Events Conditions
12:15 AM 19.4 °F - 15.8 °F 86% 30.21 in 10.0 mi Calm Calm - N/A   Clear
12:35 AM 19.4 °F - 15.8 °F 86% 30.21 in 10.0 mi Calm Calm - N/A   Clear
12:55 AM 17.6 °F - 15.8 °F 93% 30.20 in 7.0 mi Calm Calm - N/A   Clear
1:15 AM 17.6 °F - 15.8 °F 93% 30.22 in 7.0 mi Calm Calm - N/A   Clear
1:35 AM 19.4 °F - 15.8 °F 86% 30.22 in 7.0 mi Calm Calm - N/A   Clear
1:55 AM 17.6 °F - 14.0 °F 86% 30.23 in 7.0 mi Calm Calm - N/A   Clear
2:15 AM 17.6 °F - 14.0 °F 86% 30.24 in 7.0 mi Calm Calm - N/A   Clear
2:35 AM 15.8 °F - 14.0 °F 93% 30.24 in 7.0 mi Calm Calm - N/A   Clear
2:55 AM 17.6 °F - 14.0 °F 86% 30.24 in 7.0 mi Calm Calm - N/A   Clear
3:15 AM 17.6 °F 12.3 °F 14.0 °F 86% 30.24 in 7.0 mi WSW 3.5 mph - N/A   Clear
3:35 AM 17.6 °F - 14.0 °F 86% 30.23 in 7.0 mi Calm Calm - N/A   Clear
3:55 AM 17.6 °F - 15.8 °F 93% 30.23 in 7.0 mi Calm Calm - N/A   Clear
4:15 AM 17.6 °F - 14.0 °F 86% 30.22 in 7.0 mi Calm Calm - N/A   Clear
4:35 AM 17.6 °F - 14.0 °F 86% 30.22 in 7.0 mi Calm Calm - N/A   Clear
4:55 AM 15.8 °F - 14.0 °F 93% 30.22 in 7.0 mi Calm Calm - N/A   Clear
5:15 AM 15.8 °F 10.2 °F 14.0 °F 93% 30.23 in 7.0 mi SSW 3.5 mph - N/A   Clear
5:35 AM 15.8 °F - 14.0 °F 93% 30.23 in 7.0 mi Calm Calm - N/A   Clear
5:55 AM 15.8 °F 10.2 °F 14.0 °F 93% 30.23 in 7.0 mi South 3.5 mph - N/A   Clear
6:15 AM 15.8 °F 10.2 °F 14.0 °F 93% 30.22 in 7.0 mi SSE 3.5 mph - N/A   Scattered Clouds
6:35 AM 15.8 °F 10.2 °F 14.0 °F 93% 30.21 in 0.5 mi SSE 3.5 mph - N/A Fog Light Freezing Fog
6:55 AM 15.8 °F 10.2 °F 14.0 °F 93% 30.21 in 0.5 mi SSE 3.5 mph - N/A Fog Light Freezing Fog
7:15 AM 15.8 °F - 14.0 °F 93% 30.21 in 1.0 mi Calm Calm - N/A   Overcast
7:35 AM 17.6 °F 12.3 °F 14.0 °F 86% 30.21 in 0.8 mi South 3.5 mph - N/A   Overcast
7:55 AM 17.6 °F 10.7 °F 15.8 °F 93% 30.20 in 0.2 mi South 4.6 mph - N/A Fog Light Freezing Fog
8:15 AM 17.6 °F 10.7 °F 15.8 °F 93% 30.20 in 0.2 mi South 4.6 mph - N/A Fog Light Freezing Fog
8:35 AM 19.4 °F 14.3 °F 17.6 °F 93% 30.21 in 0.8 mi South 3.5 mph - N/A   Overcast
8:55 AM 19.4 °F 14.3 °F 17.6 °F 93% 30.22 in 0.8 mi South 3.5 mph - N/A   Overcast
9:15 AM 19.4 °F 12.8 °F 19.4 °F 100% 30.22 in 0.5 mi SSW 4.6 mph - N/A Fog Light Freezing Fog
9:35 AM 21.2 °F 14.9 °F 19.4 °F 93% 30.22 in 1.0 mi South 4.6 mph - N/A   Overcast
9:55 AM 21.2 °F 14.9 °F 21.2 °F 100% 30.23 in 2.5 mi South 4.6 mph - N/A   Overcast
10:15 AM 23.0 °F 17.0 °F 21.2 °F 93% 30.23 in 4.0 mi South 4.6 mph - N/A   Mostly Cloudy
10:35 AM 23.0 °F 17.0 °F 23.0 °F 100% 30.23 in 5.0 mi SSW 4.6 mph - N/A   Scattered Clouds
10:55 AM 24.8 °F 17.9 °F 23.0 °F 93% 30.23 in 7.0 mi SSW 5.8 mph - N/A   Clear
11:15 AM 26.6 °F 19.1 °F 24.8 °F 93% 30.22 in 10.0 mi SSW 6.9 mph - N/A   Clear
11:35 AM 26.6 °F 20.0 °F 24.8 °F 93% 30.21 in 10.0 mi SW 5.8 mph - N/A   Clear
11:55 AM 28.4 °F 19.7 °F 23.0 °F 80% 30.20 in 10.0 mi SW 9.2 mph - N/A   Clear
12:15 PM 30.2 °F 22.6 °F 23.0 °F 75% 30.20 in 10.0 mi SW 8.1 mph - N/A   Clear
12:35 PM 30.2 °F 22.6 °F 23.0 °F 75% 30.19 in 10.0 mi SSW 8.1 mph - N/A   Clear
12:55 PM 30.2 °F 23.4 °F 23.0 °F 75% 30.18 in 10.0 mi SSW 6.9 mph - N/A   Clear
1:15 PM 30.2 °F 25.4 °F 21.2 °F 69% 30.17 in 10.0 mi WSW 4.6 mph - N/A   Clear
1:35 PM 32.0 °F 26.4 °F 21.2 °F 64% 30.16 in 10.0 mi SSW 5.8 mph - N/A   Clear
1:55 PM 32.0 °F 24.8 °F 21.2 °F 64% 30.15 in 10.0 mi SSW 8.1 mph - N/A   Clear
2:15 PM 32.0 °F 24.8 °F 19.4 °F 60% 30.15 in 10.0 mi SSW 8.1 mph - N/A   Clear
2:35 PM 32.0 °F 24.8 °F 21.2 °F 64% 30.15 in 10.0 mi SSW 8.1 mph - N/A   Clear
2:55 PM 32.0 °F 24.2 °F 21.2 °F 64% 30.15 in 10.0 mi SSW 9.2 mph - N/A   Clear
3:15 PM 32.0 °F 24.2 °F 21.2 °F 64% 30.15 in 10.0 mi SSW 9.2 mph - N/A   Clear
3:35 PM 32.0 °F 25.6 °F 21.2 °F 64% 30.15 in 10.0 mi South 6.9 mph - N/A   Clear
3:55 PM 32.0 °F 24.2 °F 21.2 °F 64% 30.16 in 10.0 mi SSW 9.2 mph - N/A   Clear
4:15 PM 32.0 °F 24.8 °F 21.2 °F 64% 30.16 in 10.0 mi SSW 8.1 mph - N/A   Clear
4:35 PM 32.0 °F 25.6 °F 19.4 °F 60% 30.16 in 10.0 mi SSW 6.9 mph - N/A   Clear
4:55 PM 32.0 °F 25.6 °F 19.4 °F 60% 30.16 in 10.0 mi SSW 6.9 mph - N/A   Clear
5:15 PM 30.2 °F 24.3 °F 19.4 °F 64% 30.17 in 10.0 mi SSW 5.8 mph - N/A   Clear
5:35 PM 30.2 °F 24.3 °F 19.4 °F 64% 30.18 in 10.0 mi SSW 5.8 mph - N/A   Clear
5:55 PM 28.4 °F 22.2 °F 19.4 °F 69% 30.18 in 10.0 mi SSW 5.8 mph - N/A   Clear
6:15 PM 28.4 °F 23.3 °F 19.4 °F 69% 30.19 in 10.0 mi SW 4.6 mph - N/A   Clear
6:35 PM 28.4 °F 23.3 °F 19.4 °F 69% 30.19 in 10.0 mi SW 4.6 mph - N/A   Clear
6:55 PM 28.4 °F 23.3 °F 19.4 °F 69% 30.19 in 10.0 mi SW 4.6 mph - N/A   Clear
7:15 PM 28.4 °F 23.3 °F 19.4 °F 69% 30.20 in 10.0 mi SW 4.6 mph - N/A   Clear
7:35 PM 28.4 °F 22.2 °F 19.4 °F 69% 30.20 in 10.0 mi SW 5.8 mph - N/A   Clear
7:55 PM 28.4 °F 24.6 °F 19.4 °F 69% 30.21 in 10.0 mi SSW 3.5 mph - N/A   Clear
8:15 PM 26.6 °F 20.0 °F 19.4 °F 74% 30.21 in 10.0 mi SSW 5.8 mph - N/A   Clear
8:35 PM 26.6 °F 20.0 °F 19.4 °F 74% 30.21 in 10.0 mi SSW 5.8 mph - N/A   Clear
8:55 PM 26.6 °F 20.0 °F 21.2 °F 80% 30.21 in 10.0 mi SSW 5.8 mph - N/A   Clear
9:15 PM 26.6 °F 20.0 °F 21.2 °F 80% 30.21 in 10.0 mi SW 5.8 mph - N/A   Clear
9:35 PM 26.6 °F 19.1 °F 21.2 °F 80% 30.22 in 10.0 mi SSW 6.9 mph - N/A   Clear
9:55 PM 26.6 °F 20.0 °F 21.2 °F 80% 30.23 in 10.0 mi SW 5.8 mph - N/A   Scattered Clouds
10:15 PM 26.6 °F 20.0 °F 21.2 °F 80% 30.23 in 10.0 mi SW 5.8 mph - N/A   Mostly Cloudy
10:35 PM 26.6 °F 19.1 °F 21.2 °F 80% 30.24 in 10.0 mi SW 6.9 mph - N/A   Mostly Cloudy
10:55 PM 26.6 °F 21.2 °F 21.2 °F 80% 30.25 in 10.0 mi SW 4.6 mph - N/A   Clear
11:15 PM 26.6 °F 21.2 °F 21.2 °F 80% 30.24 in 10.0 mi WSW 4.6 mph - N/A   Clear
11:35 PM 26.6 °F 21.2 °F 21.2 °F 80% 30.23 in 10.0 mi West 4.6 mph - N/A   Clear
11:55 PM 24.8 °F 19.1 °F 21.2 °F 86% 30.24 in 10.0 mi WSW 4.6 mph - N/A   Clear